Regional Weather Roundup
Issued by NWS State College, PA

Home | Current Version | Previous Version | Graphics & Text | Print | Product List | Glossary Off
Versions: 1 2 3 4 5 6 7 8 9 10 11 12 13 14 15 16 17 18 19 20 21 22 23 24 25 26 27 28 29 30 31 32 33 34 35 36 37 38 39 40 41 42 43 44 45 46 47 48 49 50

000
ASUS41 KCTP 272110
RWRCTP

REGIONAL WEATHER ROUNDUP
NATIONAL WEATHER SERVICE STATE COLLEGE PA
500 PM EDT WED JUL 27 2016

Note: "fair" indicates few or no clouds below 12,000 feet with no
significant weather and/or obstructions to visibility.

* = STATION THAT DOES NOT REPORT PRECIPITATION /E.G. RAIN...SNOW...ETC/
    THUNDER OR FOG.

PAZ002>004-007>009-013>016-020>023-029>032-272200-
WESTERN PENNSYLVANIA

CITY           SKY/WX    TMP DP  RH WIND       PRES   REMARKS
ERIE           SUNNY     83  64  52 NW8       29.97F
MEADVILLE      SUNNY     83  54  36 MISG      29.99F
FRANKLIN*      SUNNY     86  59  39 NW7       30.00F
NEW CASTLE     MOCLDY    87  60  40 W3        29.98F
BEAVER COUNTY  SUNNY     88  57  35 N6        29.98
BUTLER*        SUNNY     86  57  37 CALM      30.00F
PITTSBURGH INT MOSUNNY   88  59  37 VRB5      29.97F
PITTSBURGH     PTSUNNY   86  58  38 VRB3      29.96F
INDIANA*       SUNNY     88  55  33 CALM      30.01F
LATROBE        MOSUNNY   88  61  40 NW8       29.98F
WASHINGTON CO* PTSUNNY   90  64  43 S6        29.97F
$$

PAZ004>006-010>012-017>019-024>028-033>037-041-042-045-046-049>053-272200-
CENTRAL PENNSYLVANIA

CITY           SKY/WX    TMP DP  RH WIND       PRES   REMARKS
BRADFORD       MOSUNNY   83  58  42 W6        30.02F
DUBOIS         SUNNY     85  55  35 NW7       29.99F
CLEARFIELD     SUNNY     89  53  29 NW7       29.98F
JOHNSTOWN      SUNNY     84  54  35 W10       30.02F
ALTOONA        SUNNY     91  52  26 NW8       29.97F
STATE COLLEGE  MOSUNNY   86  55  35 NW5       29.96F
WILLIAMSPORT   SUNNY     91  54  28 SW7       29.90F
SELINSGROVE    SUNNY     88  65  46 S6        29.92F
FT INDIANTOWN  NOT AVBL
CAPITAL CITY   MOSUNNY   92  59  33 VRB5      29.91F
HARRISBURG     MOSUNNY   91  65  41 SW3       29.90F
YORK           MOSUNNY   90  64  42 SE6       29.92F
$$

PAZ038>040-043-044-047-048-054-055-060>062-067>071-272200-
EASTERN PENNSYLVANIA

CITY           SKY/WX    TMP DP  RH WIND       PRES   REMARKS
SCRANTON       MOSUNNY   88  57  34 SW6       29.94F
MOUNT POCONO   MOSUNNY   82  55  39 NW6       30.00F
ALLENTOWN      SUNNY     90  60  36 CALM      29.92F
QUAKERTOWN*    PTCLDY    90  59  35 CALM      29.93F
READING        MOSUNNY   92  59  33 CALM      29.90F
LANCASTER      SUNNY     88  60  38 VRB3      29.93F
COATESVILLE    CLEAR     88  64  45 VRB6      29.95F
POTTSTOWN      PTSUNNY   90  62  39 CALM      29.93F
BLUE BELL      PTSUNNY   88  66  48 CALM      29.90F
DOYLESTOWN     SUNNY     90  61  37 N6        29.91F
WILLOW GROVE   NOT AVBL
NORTH PHILA    MOSUNNY   92  64  39 VRB5      29.91F
PHILADELPHIA   MOSUNNY   92  63  38 VRB3      29.90F
$$




USA.gov is the U.S. government's official web portal to all federal, state and local government web resources and services.